This is the latest recevied weather packets stored in our database for station/object M7PDA-1. If no packets are shown the sender has not sent any weather packets the latest 10 day(s).
| Time | Temp. | Humidity | Pressure | Rain* | Wind** | Luminosity | Snow |
|---|---|---|---|---|---|---|---|
| 1777707333 | 10° C | 86% | 1019.8 hPa | - | - | - | - |
| 1777706432 | 10° C | 86% | 1019.8 hPa | - | - | - | - |
| 1777705532 | 9.44° C | 86% | 1019.8 hPa | - | - | - | - |
| 1777704631 | 8.89° C | 86% | 1019.6 hPa | - | - | - | - |
| 1777703730 | 8.89° C | 86% | 1019.8 hPa | - | - | - | - |
| 1777702829 | 8.33° C | 86% | 1019.7 hPa | - | - | - | - |
| 1777701928 | 8.33° C | 86% | 1019.7 hPa | - | - | - | - |
| 1777701028 | 8.33° C | 86% | 1019.6 hPa | - | - | - | - |
| 1777700127 | 7.78° C | 86% | 1019.6 hPa | - | - | - | - |
| 1777699226 | 7.78° C | 86% | 1019.5 hPa | - | - | - | - |
| 1777698325 | 7.22° C | 86% | 1019.6 hPa | - | - | - | - |
| 1777697424 | 7.22° C | 86% | 1019.6 hPa | - | - | - | - |
| 1777696523 | 7.22° C | 86% | 1019.5 hPa | - | - | - | - |
| 1777695622 | 7.78° C | 86% | 1019.5 hPa | - | - | - | - |
| 1777694722 | 7.78° C | 86% | 1019.6 hPa | - | - | - | - |
| 1777693821 | 7.78° C | 86% | 1019.7 hPa | - | - | - | - |
| 1777692920 | 7.22° C | 86% | 1019.7 hPa | - | - | - | - |
| 1777692019 | 7.22° C | 86% | 1019.7 hPa | - | - | - | - |
| 1777691118 | 7.22° C | 86% | 1019.6 hPa | - | - | - | - |
| 1777690218 | 7.78° C | 86% | 1019.6 hPa | - | - | - | - |
| 1777689317 | 7.78° C | 86% | 1019.8 hPa | - | - | - | - |
| 1777688416 | 8.33° C | 86% | 1019.8 hPa | - | - | - | - |
| 1777687516 | 8.33° C | 86% | 1019.9 hPa | - | - | - | - |
| 1777686615 | 8.33° C | 86% | 1020 hPa | - | - | - | - |
| 1777685714 | 8.89° C | 85% | 1020.2 hPa | - | - | - | - |
* Rain since midnight (hover to see other rain measurements)
** Current wind speed in m/s (hover to see current wind gust speed)